User: anonymous   Login
Location: Unspecified
(0.0000°N, 0.0000°E)
Time: 07:47:04
(UTC+00:00)
Language:

GOSAT - Orbit

View from above orbital plane
View from above orbital plane
View from above satellite
View from above satellite

Ground track
Ground track

The orbit data is extracted from the following two-line orbital elements,

1 33492U 09002A   15185.76964204 -.00000001  00000-0  82372-5 0  9999
2 33492 098.0757 294.4367 0001595 077.4806 282.6594 14.67544580345198
Epoch (UTC): 04 July 2015 18:28:17
Eccentricity: 0.0001595
inclination: 98.0757°
perigee height: 668 km
apogee height: 670 km
right ascension of ascending node: 294.4367°
argument of perigee: 77.4806°
revolutions per day: 14.67544580
mean anomaly at epoch: 282.6594°
orbit number at epoch: 34519

The dashed part of the orbit path shows where the satellite is in the earth's shadow,  

DLR